1498579201.18,42949,23.44,74128.5,11.21,0.43,-3.67,0,*54
1498579202.41,42950,23.44,74128.8,11.21,0.41,-3.59,0,*53
1498579203.65,42951,23.44,74128.8,11.21,0.29,-3.59,0,*5C
1498579204.88,42952,23.44,74134.8,11.21,0.21,-3.55,0,*5B
1498579206.1,42953,23.44,74134.5,11.21,0.17,-3.47,0,*5C
1498579207.34,42954,23.44,74134.0,11.23,0.21,-3.39,0,*55
1498579208.58,42955,23.44,74132.0,11.23,-0.03,-3.43,0,*44
1498579209.81,42956,23.44,74130.0,11.23,-0.07,-3.43,0,*43
1498579211.03,42957,23.44,74128.5,11.23,-0.15,-3.39,0,*7C
1498579212.27,42958,23.44,74134.0,11.23,-0.37,-3.55,0,*79
1498579213.47,42959,23.44,74132.8,11.25,-0.49,-3.55,0,*77
1498579214.71,42960,23.44,74132.8,11.23,-0.53,-3.55,0,*70
1498579215.92,42961,23.44,74134.3,11.25,-0.69,-3.55,0,*7E
1498579217.12,42962,23.44,74130.3,11.25,-0.77,-3.63,0,*77
1498579218.34,42963,23.44,74132.0,11.25,-1.01,-3.83,0,*48
1498579219.57,42964,23.44,74132.3,11.25,-1.01,-3.75,0,*46
1498579220.81,42965,23.44,74132.0,11.25,-1.05,-3.67,0,*40
1498579222.05,42966,23.44,74132.8,11.25,-1.13,-3.67,0,*44
1498579223.26,42967,23.44,74132.0,11.25,-1.29,-3.67,0,*4C
1498579224.48,42968,23.44,74132.5,11.25,-1.43,-3.83,0,*45
1498579225.71,42969,23.44,74132.0,11.25,-1.39,-3.91,0,*4A
1498579226.89,42970,23.44,74134.3,11.25,-1.51,-3.83,0,*4F
1498579228.14,42971,23.44,74132.8,11.27,-1.83,-4.05,0,*4A
1498579229.38,42972,23.44,74132.8,11.27,-1.95,-4.17,0,*4D
1498579230.61,42973,23.44,74134.3,11.25,-1.99,-4.09,0,*4D
1498579231.85,42974,23.44,74132.0,11.27,-2.11,-4.17,0,*44
1498579233.1,42975,23.44,74130.8,11.27,-2.11,-4.17,0,*45
1498579234.31,42976,23.44,74130.0,11.27,-2.27,-4.17,0,*43
1498579235.51,42977,23.44,74132.5,11.29,-2.23,-4.13,0,*4C
1498579236.76,42978,23.44,74128.3,11.27,-2.51,-4.29,0,*41
1498579238.01,42979,23.44,74130.8,11.27,-2.51,-4.25,0,*4C
1498579239.26,42980,23.44,74132.8,11.27,-2.51,-4.25,0,*4A
1498579240.5,42981,23.44,74134.8,11.27,-2.59,-4.17,0,*42
1498579241.72,42982,23.44,74134.0,11.25,-2.55,-4.09,0,*40
1498579242.97,42983,23.44,74132.5,11.31,-2.47,-4.13,0,*4C
1498579244.2,42984,23.44,74128.5,11.29,-2.63,-4.13,0,*44
1498579245.45,42985,23.44,74132.8,11.31,-2.71,-4.09,0,*44
1498579246.7,42986,23.44,74132.8,11.31,-2.71,-4.09,0,*47
1498579247.94,42987,23.44,74134.8,11.31,-2.95,-4.21,0,*46
1498579249.17,42988,23.44,74134.5,11.31,-2.95,-4.21,0,*49
1498579250.38,42989,23.44,74132.3,11.29,-3.11,-4.37,0,*4B
1498579251.6,42990,23.44,74132.5,11.31,-3.11,-4.25,0,*49
1498579252.83,42991,23.44,74132.8,11.31,-3.23,-4.37,0,*4A
1498579254.05,42992,23.44,74132.0,11.31,-3.23,-4.25,0,*4A
1498579255.28,42993,23.44,74134.3,11.31,-3.31,-4.33,0,*4F
1498579256.54,42994,23.44,74132.8,11.37,-3.55,-4.61,0,*4B
1498579257.79,42995,23.44,74134.3,11.35,-3.67,-4.69,0,*41
1498579259.03,42996,23.44,74134.5,11.31,-3.75,-4.61,0,*4D
1498579260.26,42997,23.44,74128.5,11.31,-3.75,-4.61,0,*4C
1498579261.52,42998,23.44,74130.5,11.31,-3.71,-4.53,0,*46
1498579262.77,42999,23.44,74128.8,11.31,-3.71,-4.37,0,*45
1498579264.0,43000,23.44,74134.0,11.35,-3.67,-4.41,0,*4F
1498579265.21,43001,23.44,74128.5,11.35,-3.79,-4.57,0,*46
1498579266.43,43002,23.44,74134.0,11.35,-4.05,-4.73,0,*4F
1498579267.66,43003,23.44,74132.3,11.35,-4.09,-4.73,0,*42
1498579268.89,43004,23.44,74130.3,11.35,-4.17,-4.69,0,*41
1498579270.14,43005,23.44,74134.3,11.37,-4.29,-4.73,0,*44
1498579271.34,43006,23.44,74134.5,11.35,-4.17,-4.57,0,*4E
1498579272.54,43007,23.44,74130.5,11.35,-4.09,-4.45,0,*43
1498579273.74,43008,23.44,74132.0,11.35,-4.09,-4.45,0,*4C
1498579274.93,43009,23.44,74132.8,11.35,-4.05,-4.45,0,*41
1498579276.16,43010,23.44,74130.5,11.37,-4.09,-4.45,0,*47
1498579277.39,43011,23.44,74130.3,11.37,-4.21,-4.45,0,*4C
1498579278.62,43012,23.44,74134.0,11.37,-4.21,-4.41,0,*4B
1498579279.85,43013,23.44,74132.3,11.37,-4.17,-4.29,0,*41
1498579281.08,43014,23.44,74132.0,11.37,-4.21,-4.29,0,*43
1498579282.31,43015,23.44,74132.8,11.37,-4.29,-4.29,0,*4A
1498579283.51,43016,23.44,74130.5,11.35,-4.41,-4.41,0,*4B
1498579284.74,43017,23.44,74132.0,11.37,-4.61,-4.57,0,*4D
1498579285.94,43018,23.44,74132.5,11.39,-4.65,-4.53,0,*4C
1498579287.17,43019,23.44,74132.0,11.39,-4.81,-4.57,0,*43
1498579288.41,43020,23.44,74132.0,11.39,-4.93,-4.69,0,*47
1498579289.66,43021,23.44,74130.3,11.37,-4.81,-4.45,0,*45
1498579290.88,43022,23.44,74138.5,11.37,-4.61,-4.33,0,*49
1498579292.11,43023,23.44,74132.5,11.37,-4.61,-4.29,0,*43
1498579293.31,43024,23.44,74134.3,11.39,-4.57,-4.17,0,*42
1498579294.53,43025,23.44,74134.8,11.37,-4.61,-4.17,0,*48
1498579295.75,43026,23.44,74132.5,11.41,-4.65,-4.05,0,*4D
1498579296.95,43027,23.44,74132.0,11.39,-4.65,-4.13,0,*44
1498579298.19,43028,23.44,74132.3,11.41,-4.89,-4.25,0,*43
1498579299.44,43029,23.44,74136.0,11.41,-5.19,-4.53,0,*4B
1498579300.67,43030,23.44,74134.5,11.39,-5.27,-4.57,0,*45
1498579301.89,43031,23.44,74132.5,11.39,-5.27,-4.45,0,*47
1498579303.12,43032,23.44,74132.0,11.39,-5.27,-4.37,0,*41
1498579304.32,43033,23.44,74128.3,11.39,-5.43,-4.57,0,*44
1498579305.53,43034,23.44,74134.5,11.39,-5.55,-4.57,0,*44
1498579306.74,43035,23.44,74134.3,11.39,-5.55,-4.57,0,*45
1498579307.97,43036,23.44,74130.3,11.39,-5.31,-4.29,0,*4D
1498579309.21,43037,23.44,74134.5,11.37,-5.35,-4.21,0,*4E
1498579310.46,43038,23.44,74136.0,11.37,-5.31,-4.09,0,*4F
1498579311.67,43039,23.44,74134.5,11.35,-5.47,-4.21,0,*47
1498579312.89,43040,23.44,74132.5,11.37,-5.39,-4.17,0,*47
1498579314.14,43041,23.44,74130.8,11.37,-5.61,-4.21,0,*4E
1498579315.37,43042,23.44,74132.8,11.37,-5.47,-4.09,0,*43
1498579316.57,43043,23.44,74130.0,11.35,-5.47,-3.95,0,*42
1498579317.8,43044,23.44,74128.0,11.37,-5.47,-3.91,0,*43
1498579319.03,43045,23.44,74134.3,11.37,-5.39,-3.79,0,*4D
1498579320.27,43046,23.44,74128.0,11.37,-5.39,-3.71,0,*46
1498579321.47,43047,23.44,74132.3,11.35,-5.51,-3.83,0,*46
1498579322.69,43048,23.44,74130.5,11.35,-5.61,-3.79,0,*4F
1498579323.91,43049,23.44,74130.3,11.39,-5.47,-3.51,0,*4C
1498579325.13,43050,23.44,74128.5,11.35,-5.51,-3.55,0,*4B
1498579326.36,43051,23.44,74132.0,11.35,-5.51,-3.43,0,*4D
1498579327.6,43052,23.44,74130.3,11.35,-5.61,-3.43,0,*4D
1498579328.82,43053,23.44,74134.5,11.35,-5.61,-3.31,0,*49
1498579330.01,43054,23.44,74128.3,11.35,-5.39,-3.15,0,*45
1498579331.21,43055,23.44,74128.8,11.35,-5.51,-3.07,0,*49
1498579332.42,43056,23.44,74134.5,11.35,-5.35,-2.95,0,*42
1498579333.61,43057,23.44,74128.0,11.35,-5.35,-2.91,0,*47
1498579334.83,43058,23.44,74132.8,11.37,-5.39,-2.91,0,*46
1498579336.06,43059,23.44,74130.3,11.31,-5.51,-2.91,0,*4F
1498579337.29,43060,23.44,74128.0,11.31,-5.55,-2.95,0,*45
1498579338.51,43061,23.44,74128.5,11.35,-5.61,-2.87,0,*44
1498579339.77,43062,23.44,74128.0,11.31,-5.51,-2.59,0,*43
1498579340.99,43063,23.44,74130.3,11.31,-5.35,-2.43,0,*4B
1498579342.24,43064,23.44,74126.8,11.31,-5.27,-2.35,0,*4E
1498579343.47,43065,23.44,74130.8,11.31,-5.39,-2.35,0,*40
1498579344.7,43066,23.44,74130.3,11.31,-5.51,-2.35,0,*4D
1498579345.97,43067,23.44,74130.5,11.31,-5.23,-1.95,0,*40
1498579347.22,43068,23.44,74128.3,11.31,-5.35,-2.11,0,*47
1498579348.47,43069,23.44,74134.0,11.31,-5.39,-2.11,0,*4A
1498579349.7,43070,23.44,74128.8,11.31,-5.51,-2.19,0,*44
1498579350.93,43071,23.44,74130.0,11.29,-5.47,-2.11,0,*43
1498579352.15,43072,23.44,74128.8,11.29,-5.47,-2.11,0,*40
1498579353.36,43073,23.44,74128.8,11.29,-5.43,-1.95,0,*4A
1498579354.59,43074,23.44,74130.3,11.29,-5.47,-1.87,0,*4A
1498579355.82,43075,23.44,74128.5,11.29,-5.19,-1.51,0,*4B
1498579357.07,43076,23.44,74128.8,11.29,-5.15,-1.47,0,*43
1498579358.34,43077,23.44,74130.0,11.27,-5.27,-1.47,0,*4D
1498579359.62,43078,23.44,74128.5,11.27,-5.19,-1.39,0,*46
1498579360.85,43079,23.44,74130.0,11.25,-4.81,-1.13,0,*4D
1498579362.12,43080,23.44,74130.8,11.27,-4.89,-1.13,0,*41
1498579363.35,43081,23.44,74130.5,11.25,-4.93,-1.13,0,*49
1498579364.58,43082,23.44,74132.0,11.25,-4.85,-1.01,0,*4E
1498579365.77,43083,23.44,74130.8,11.25,-4.45,-0.45,0,*72
1498579366.98,43084,23.44,74132.8,11.27,-4.41,-0.45,0,*73
1498579368.2,43085,23.44,74126.0,11.25,-4.99,-1.05,0,*40
1498579369.41,43086,23.44,74128.0,11.25,-4.69,-0.77,0,*78
1498579370.63,43087,23.44,74128.5,11.27,-4.41,-0.37,0,*75
1498579371.85,43088,23.44,74128.3,11.27,-4.37,-0.33,0,*7F
1498579373.07,43089,23.44,74132.0,11.27,-4.41,-0.37,0,*7B
1498579374.29,43090,23.44,74132.5,11.27,-4.13,-0.15,0,*74
1498579375.5,43091,23.44,74128.8,11.27,-4.13,0.01,0,*6D
1498579376.68,43092,23.44,74128.5,11.25,-4.17,-0.03,0,*47
1498579377.9,43093,23.44,74128.3,11.27,-4.13,-0.03,0,*40
1498579379.09,43094,23.44,74130.3,11.25,-3.91,0.09,0,*6F
1498579380.29,43095,23.44,74130.3,11.25,-3.95,0.05,0,*66
1498579381.5,43096,23.44,74130.0,11.25,-3.91,0.25,0,*53
1498579382.72,43097,23.44,74132.3,11.25,-3.75,0.37,0,*5B
1498579383.96,43098,23.44,74128.0,11.25,-3.43,0.59,0,*59
1498579385.2,43099,23.44,74130.0,11.25,-3.51,0.55,0,*57
1498579386.41,43100,23.44,74130.0,11.25,-3.43,0.43,0,*52
1498579387.65,43101,23.44,74132.8,11.25,-3.51,0.47,0,*54
1498579388.89,43102,23.44,74130.5,11.27,-3.15,0.83,0,*5D
1498579390.1,43103,23.44,74132.5,11.25,-3.19,0.79,0,*57
1498579391.35,43104,23.44,74128.0,11.23,-3.07,0.91,0,*5F
1498579392.56,43105,23.44,74134.3,11.23,-2.91,1.05,0,*6C
1498579393.77,43106,23.44,74130.5,11.23,-2.91,0.97,0,*55
1498579394.97,43107,23.44,74132.0,11.23,-2.91,0.97,0,*54
1498579396.17,43108,23.44,74126.5,11.25,-2.91,0.95,0,*5F
1498579397.38,43109,23.44,74130.5,11.25,-2.67,1.05,0,*6F
1498579398.62,43110,23.44,74128.5,11.25,-2.63,1.17,0,*60
1498579399.87,43111,23.44,74128.8,11.25,-2.51,1.21,0,*65
1498579401.1,43112,23.44,74130.3,11.27,-2.35,1.43,0,*62
1498579402.33,43113,23.44,74130.8,11.27,-2.27,1.47,0,*64
1498579403.57,43114,23.44,74128.8,11.27,-2.27,1.37,0,*64
1498579404.79,43115,23.44,74128.3,11.25,-2.31,1.33,0,*64
1498579406.02,43116,23.44,74128.0,11.27,-2.15,1.43,0,*64
1498579407.28,43117,23.44,74128.3,11.27,-2.07,1.47,0,*62
1498579408.54,43118,23.44,74132.3,11.27,-1.99,1.59,0,*66
1498579409.81,43119,23.44,74126.3,11.27,-1.87,1.47,0,*67
1498579411.04,43120,23.44,74128.3,11.29,-1.95,1.43,0,*64
1498579412.28,43121,23.44,74128.8,11.29,-1.87,1.47,0,*62
1498579413.51,43122,23.44,74130.3,11.29,-1.87,1.43,0,*65
1498579414.76,43123,23.44,74128.8,11.29,-1.83,1.37,0,*63
1498579415.97,43124,23.44,74128.3,11.29,-1.75,1.43,0,*6E
1498579417.18,43125,23.44,74126.0,11.31,-1.71,1.41,0,*60
1498579418.39,43126,23.44,74128.5,11.31,-1.67,1.41,0,*64
1498579419.61,43127,23.44,74128.0,11.29,-1.75,1.33,0,*6A
1498579420.8,43128,23.44,74130.8,11.29,-1.71,1.41,0,*64
1498579422.04,43129,23.44,74128.0,11.31,-1.67,1.29,0,*65
1498579423.31,43130,23.44,74130.0,11.31,-1.83,1.13,0,*6E
1498579424.52,43131,23.44,74128.5,11.29,-1.95,1.01,0,*62
1498579425.77,43132,23.44,74124.5,11.31,-1.71,1.17,0,*65
1498579427.0,43133,23.44,74124.0,11.31,-1.59,1.29,0,*63
1498579428.22,43134,23.44,74126.0,11.35,-1.55,1.17,0,*61
1498579429.43,43135,23.44,74130.0,11.35,-1.55,1.17,0,*60
1498579430.65,43136,23.44,74130.8,11.35,-1.55,1.09,0,*6C
1498579431.87,43137,23.44,74128.0,11.35,-1.55,1.09,0,*6D
1498579433.11,43138,23.44,74128.0,11.37,-1.51,1.09,0,*64
1498579434.38,43139,23.44,74130.3,11.37,-1.39,1.17,0,*64
1498579435.63,43140,23.44,74128.0,11.37,-1.25,1.17,0,*67
1498579436.88,43141,23.44,74122.5,11.35,-1.39,1.09,0,*66
1498579438.14,43142,23.44,74126.5,11.37,-1.43,0.95,0,*5E
1498579439.35,43143,23.44,74124.5,11.39,-1.51,0.83,0,*55
1498579440.59,43144,23.44,74126.0,11.39,-1.47,0.87,0,*51
1498579441.83,43145,23.44,74124.3,11.37,-1.51,0.83,0,*5D
1498579443.05,43146,23.44,74128.5,11.37,-1.33,1.01,0,*61
1498579444.27,43147,23.44,74126.0,11.37,-1.25,1.01,0,*67
1498579445.52,43148,23.44,74126.3,11.37,-1.29,0.91,0,*5C
1498579446.76,43149,23.44,74126.3,11.37,-1.33,0.79,0,*50
1498579447.98,43150,23.44,74122.5,11.39,-1.29,0.83,0,*58
1498579449.2,43151,23.44,74124.3,11.39,-1.21,0.95,0,*56
1498579450.45,43152,23.44,74126.0,11.41,-1.13,0.95,0,*5B
1498579451.68,43153,23.44,74124.3,11.41,-0.89,0.97,0,*6A
1498579452.89,43154,23.44,74126.5,11.39,-0.97,1.05,0,*57
1498579454.13,43155,23.44,74124.5,11.39,-1.01,0.87,0,*53
1498579455.37,43156,23.44,74120.3,11.41,-1.25,0.63,0,*53
1498579456.61,43157,23.44,74122.0,11.39,-1.35,0.51,0,*5D
1498579457.83,43158,23.44,74124.8,11.39,-1.29,0.47,0,*58
1498579459.09,43159,23.44,74124.3,11.41,-1.13,0.59,0,*50
1498579460.33,43160,23.44,74120.3,11.41,-1.21,0.51,0,*53
1498579461.6,43161,23.44,74122.8,11.41,-1.13,0.59,0,*5B
1498579462.83,43162,23.44,74122.8,11.41,-1.25,0.51,0,*55
1498579464.07,43163,23.44,74124.5,11.39,-1.35,0.33,0,*5E
1498579465.31,43164,23.44,74126.0,11.39,-1.39,0.25,0,*52
1498579466.53,43165,23.44,74126.0,11.39,-1.21,0.37,0,*59
1498579467.76,43166,23.44,74118.5,11.41,-1.25,0.33,0,*55
1498579469.02,43167,23.44,74124.0,11.41,-1.09,0.37,0,*5E
1498579470.25,43168,23.44,74120.5,11.41,-1.21,0.33,0,*5F
1498579471.51,43169,23.44,74124.5,11.41,-0.97,0.37,0,*66
1498579472.75,43170,23.44,74126.5,11.39,-0.97,0.25,0,*62
1498579473.98,43171,23.44,74120.5,11.41,-1.09,0.09,0,*64
1498579475.21,43172,23.44,74124.8,11.41,-1.13,0.01,0,*64
1498579476.44,43173,23.44,74122.8,11.45,-1.17,-0.19,0,*71
1498579477.65,43174,23.44,74126.0,11.43,-1.47,-0.61,0,*7A
1498579478.86,43175,23.44,74124.0,11.43,-1.59,-0.85,0,*7E
1498579480.09,43176,23.44,74122.3,11.41,-1.59,-0.97,0,*7C
1498579481.31,43177,23.44,74120.8,11.39,-1.59,-1.01,0,*4C
1498579482.52,43178,23.44,74120.0,11.39,-1.59,-1.01,0,*43
1498579483.74,43179,23.44,74120.8,11.39,-1.51,-1.09,0,*42
1498579484.97,43180,23.44,74122.5,11.41,-1.51,-1.13,0,*40
1498579486.22,43181,23.44,74122.0,11.39,-1.47,-1.13,0,*49
1498579487.48,43182,23.44,74120.0,11.39,-1.39,-1.35,0,*47
1498579488.74,43183,23.44,74122.5,11.39,-1.39,-1.35,0,*46
1498579489.99,43184,23.44,74120.5,11.39,-1.47,-1.47,0,*4D
1498579491.19,43185,23.44,74120.8,11.39,-1.59,-1.71,0,*46
1498579492.39,43186,23.44,74122.5,11.39,-1.59,-1.71,0,*45
1498579493.59,43187,23.44,74122.0,11.39,-1.59,-1.71,0,*44
1498579494.79,43188,23.44,74122.3,11.39,-1.59,-1.75,0,*4F
1498579495.98,43189,23.44,74124.5,11.39,-1.59,-1.75,0,*4E
1498579497.2,43190,23.44,74120.0,11.39,-1.51,-1.83,0,*47
1498579498.42,43191,23.44,74126.0,11.39,-1.59,-1.87,0,*4A
1498579499.68,43192,23.44,74124.0,11.37,-1.67,-2.07,0,*41
1498579500.93,43193,23.44,74120.8,11.37,-1.67,-1.99,0,*44
1498579502.16,43194,23.44,74120.3,11.37,-1.75,-2.15,0,*47
1498579503.42,43195,23.44,74126.5,11.39,-2.11,-2.51,0,*49
1498579504.64,43196,23.44,74124.3,11.39,-2.51,-2.91,0,*42
1498579505.88,43197,23.44,74124.5,11.37,-2.67,-3.15,0,*45
1498579507.14,43198,23.44,74118.5,11.37,-2.63,-3.07,0,*4D
1498579508.36,43199,23.44,74122.0,11.35,-2.55,-3.15,0,*48
1498579509.56,43200,23.44,74122.5,11.35,-2.79,-3.27,0,*44
1498579510.79,43201,23.44,74118.8,11.35,-2.75,-3.27,0,*49
1498579512.03,43202,23.44,74122.8,11.31,-2.59,-3.07,0,*42
1498579513.28,43203,23.44,74122.8,11.31,-2.59,-3.19,0,*4C
1498579514.53,43204,23.44,74120.3,11.31,-2.59,-2.99,0,*42
1498579515.75,43205,23.44,74126.0,11.29,-2.63,-3.15,0,*46
1498579516.97,43206,23.44,74120.0,11.31,-2.79,-3.31,0,*41
1498579518.19,43207,23.44,74120.0,11.31,-2.79,-3.23,0,*43
1498579519.4,43208,23.44,74124.0,11.31,-2.83,-3.31,0,*4A
1498579520.6,43209,23.44,74122.8,11.29,-2.87,-3.35,0,*42
1498579521.8,43210,23.44,74126.0,11.29,-2.99,-3.35,0,*45
1498579523.0,43211,23.44,74122.5,11.29,-2.95,-3.35,0,*48
1498579524.22,43212,23.44,74122.5,11.35,-3.19,-3.51,0,*41
1498579525.44,43213,23.44,74120.8,11.29,-3.35,-3.71,0,*41
1498579526.69,43214,23.44,74120.0,11.29,-3.63,-4.01,0,*45
1498579527.93,43215,23.44,74122.3,11.31,-3.75,-4.21,0,*48
1498579529.13,43216,23.44,74126.0,11.29,-3.87,-4.17,0,*4A
1498579530.33,43217,23.44,74126.3,11.29,-3.79,-4.17,0,*4A
1498579531.53,43218,23.44,74120.3,11.29,-4.05,-4.29,0,*44
1498579532.73,43219,23.44,74124.5,11.29,-4.17,-4.29,0,*46
1498579533.93,43220,23.44,74122.8,11.29,-4.29,-4.49,0,*47
1498579535.13,43221,23.44,74120.3,11.25,-4.53,-4.61,0,*4D
1498579536.32,43222,23.44,74120.8,11.25,-4.53,-4.57,0,*4B
1498579537.54,43223,23.44,74122.5,11.25,-4.57,-4.69,0,*43
1498579538.77,43224,23.44,74124.5,11.25,-4.57,-4.73,0,*4F
1498579540.01,43225,23.44,74122.0,11.25,-4.69,-4.81,0,*4E
1498579541.28,43226,23.44,74126.8,11.23,-4.81,-4.85,0,*49
1498579542.55,43227,23.44,74120.3,11.23,-4.73,-4.81,0,*41
1498579543.82,43228,23.44,74122.5,11.23,-4.85,-4.85,0,*43
1498579545.1,43229,23.44,74126.0,11.23,-4.85,-4.81,0,*46
1498579546.37,43230,23.44,74122.5,11.23,-4.73,-4.69,0,*41
1498579547.59,43231,23.44,74122.5,11.21,-4.73,-4.65,0,*4E
1498579548.85,43232,23.44,74122.3,11.23,-5.07,-4.99,0,*4E
1498579550.07,43233,23.44,74118.0,11.21,-5.03,-4.99,0,*49
1498579551.33,43234,23.44,74122.3,11.21,-5.03,-4.89,0,*4F
1498579552.59,43235,23.44,74122.0,11.21,-5.15,-5.11,0,*49
1498579553.82,43236,23.44,74122.8,11.21,-5.35,-5.11,0,*48
1498579555.1,43237,23.44,74116.8,11.19,-5.19,-5.03,0,*4F
1498579556.33,43238,23.44,74116.5,11.17,-5.47,-5.31,0,*44
1498579557.59,43239,23.44,74120.0,11.19,-5.65,-5.55,0,*49
1498579558.86,43240,23.44,74116.8,11.19,-5.69,-5.55,0,*4B
1498579560.11,43241,23.44,74118.3,11.19,-5.43,-5.27,0,*47
1498579561.36,43242,23.44,74116.0,11.17,-5.19,-5.11,0,*40
1498579562.56,43243,23.44,74112.8,11.17,-5.47,-5.35,0,*4C
1498579563.82,43244,23.44,74112.5,11.17,-5.31,-5.11,0,*4C
1498579565.08,43245,23.44,74110.0,11.17,-5.31,-5.23,0,*4C
1498579566.33,43246,23.44,74110.0,11.17,-5.61,-5.61,0,*4C
1498579567.59,43247,23.44,74112.8,11.17,-5.85,-5.89,0,*41
1498579568.81,43248,23.44,74114.3,11.15,-6.13,-6.09,0,*4B
1498579570.01,43249,23.44,74114.8,11.13,-6.01,-6.01,0,*47
1498579571.2,43250,23.44,74110.0,11.13,-6.01,-6.01,0,*4F
1498579572.4,43251,23.44,74110.0,11.13,-6.13,-6.13,0,*4E
1498579573.63,43252,23.44,74110.0,11.11,-6.43,-6.55,0,*48
1498579574.86,43253,23.44,74104.5,11.07,-6.43,-6.51,0,*4A
1498579576.12,43254,23.44,74106.3,11.07,-5.97,-6.19,0,*4B
1498579577.35,43255,23.44,74104.3,11.03,-6.35,-6.35,0,*4B
1498579578.57,43256,23.44,74106.8,11.05,-6.13,-6.23,0,*4D
1498579579.77,43257,23.44,74106.8,11.05,-5.97,-6.13,0,*40
1498579581.0,43258,23.44,74108.8,11.05,-6.13,-6.27,0,*47
1498579582.25,43259,23.44,74110.8,11.03,-6.27,-6.47,0,*41
1498579583.5,43260,23.44,74110.3,11.03,-6.23,-6.39,0,*46
1498579584.74,43261,23.44,74110.3,11.03,-6.13,-6.23,0,*4F
1498579585.98,43262,23.44,74110.8,10.99,-6.05,-6.19,0,*40
1498579587.19,43263,23.44,74110.8,10.99,-6.05,-6.31,0,*4B
1498579588.4,43264,23.44,74104.0,10.99,-6.01,-6.13,0,*48
1498579589.64,43265,23.44,74110.5,10.99,-6.01,-6.19,0,*43
1498579590.87,43266,23.44,74114.3,10.99,-6.05,-6.19,0,*44
1498579592.09,43267,23.44,74108.3,10.97,-5.85,-6.05,0,*4D
1498579593.33,43268,23.44,74114.0,10.95,-5.81,-5.97,0,*4C
1498579594.6,43269,23.44,74112.3,10.95,-5.81,-5.89,0,*42
1498579595.86,43270,23.44,74116.8,10.95,-5.69,-5.73,0,*49
1498579597.08,43271,23.44,74114.5,10.97,-5.23,-5.39,0,*4A
1498579598.29,43272,23.44,74114.3,10.97,-5.55,-5.77,0,*42
1498579599.53,43273,23.44,74114.5,10.97,-5.69,-5.85,0,*41
1498579600.75,43274,23.44,74114.0,10.97,-5.55,-5.77,0,*44
1498579601.98,43275,23.44,74108.3,10.95,-5.73,-5.97,0,*4D
1498579603.2,43276,23.44,74110.0,10.95,-5.97,-6.13,0,*4B
1498579604.41,43277,23.44,74110.8,10.97,-5.85,-6.09,0,*40
1498579605.65,43278,23.44,74108.8,10.97,-5.77,-5.85,0,*45
1498579606.87,43279,23.44,74112.5,10.97,-5.55,-5.65,0,*4A
1498579608.11,43280,23.44,74112.5,10.95,-5.81,-6.01,0,*46
1498579609.35,43281,23.44,74110.5,10.95,-5.85,-5.97,0,*4F
1498579610.62,43282,23.44,74114.5,10.95,-5.81,-5.89,0,*47
1498579611.89,43283,23.44,74118.5,10.95,-5.69,-5.85,0,*4C
1498579613.11,43284,23.44,74114.8,10.93,-6.01,-6.19,0,*46
1498579614.35,43285,23.44,74112.8,10.93,-5.89,-6.19,0,*44
1498579615.59,43286,23.44,74116.8,10.91,-5.89,-6.13,0,*4F
1498579616.81,43287,23.44,74112.5,10.93,-6.19,-6.31,0,*46
1498579618.04,43288,23.44,74110.8,10.93,-5.61,-5.77,0,*44
1498579619.25,43289,23.44,74108.5,10.93,-5.39,-5.73,0,*4C
1498579620.49,43290,23.44,74114.5,10.91,-5.39,-5.61,0,*45
1498579621.73,43291,23.44,74114.0,10.91,-5.27,-5.51,0,*48
1498579622.97,43292,23.38,74110.0,10.91,-5.47,-5.65,0,*4A
1498579624.19,43293,23.44,74114.8,10.93,-5.51,-5.65,0,*4E
1498579625.4,43294,23.44,74112.3,10.93,-5.85,-6.01,0,*41
1498579626.62,43295,23.44,74110.0,10.93,-6.19,-6.31,0,*45
1498579627.86,43296,23.44,74114.8,10.93,-5.89,-6.19,0,*46
1498579629.1,43297,23.44,74110.0,10.91,-6.05,-6.19,0,*42
1498579630.33,43298,23.44,74106.3,10.91,-6.05,-6.27,0,*40
1498579631.54,43299,23.44,74108.5,10.89,-5.81,-5.97,0,*4F
1498579632.76,43300,23.44,74104.3,10.89,-5.93,-6.09,0,*49
1498579633.99,43301,23.44,74108.3,10.91,-5.77,-6.01,0,*43
1498579635.24,43302,23.44,74108.3,10.89,-5.81,-5.89,0,*43
1498579636.45,43303,23.44,74110.8,10.89,-5.69,-5.97,0,*4B
1498579637.66,43304,23.44,74108.5,10.89,-5.89,-5.97,0,*42
1498579638.87,43305,23.44,74110.3,10.85,-5.85,-6.01,0,*4F
1498579640.08,43306,23.44,74110.3,10.85,-5.85,-5.97,0,*40
1498579641.32,43307,23.44,74108.8,10.85,-5.81,-5.93,0,*41
1498579642.53,43308,23.44,74108.3,10.89,-5.81,-5.97,0,*46
1498579643.78,43309,23.44,74110.3,10.89,-5.81,-5.89,0,*48
1498579644.98,43310,23.44,74110.0,10.85,-5.73,-5.97,0,*4E
1498579646.2,43311,23.44,74108.5,10.89,-5.55,-5.77,0,*49
1498579647.44,43312,23.44,74110.5,10.89,-5.31,-5.65,0,*4B
1498579648.66,43313,23.44,74108.5,10.89,-5.31,-5.55,0,*49
1498579649.87,43314,23.44,74110.0,10.89,-5.39,-5.65,0,*45
1498579651.11,43315,23.44,74110.5,10.89,-5.31,-5.65,0,*4C
1498579652.32,43316,23.44,74112.0,10.89,-5.51,-5.77,0,*4A
1498579653.56,43317,23.44,74114.0,10.85,-5.61,-5.81,0,*4D
1498579654.77,43318,23.44,74112.5,10.85,-5.85,-6.09,0,*4B
1498579655.98,43319,23.44,74110.0,10.85,-5.81,-6.09,0,*4E
1498579657.19,43320,23.44,74110.0,10.89,-5.51,-5.77,0,*4F
1498579658.41,43321,23.44,74112.0,10.85,-5.35,-5.61,0,*47
1498579659.66,43322,23.44,74108.5,10.85,-5.31,-5.61,0,*40
1498579660.89,43323,23.44,74108.3,10.83,-5.47,-5.73,0,*45
1498579662.13,43324,23.44,74110.8,10.83,-5.35,-5.69,0,*4C
1498579663.34,43325,23.44,74112.3,10.89,-5.39,-5.69,0,*4B
1498579664.56,43326,23.44,74114.8,10.89,-5.31,-5.51,0,*4B
1498579665.76,43327,23.44,74110.0,10.85,-5.43,-5.69,0,*48
1498579666.98,43328,23.44,74116.0,10.85,-5.55,-5.81,0,*46
1498579668.22,43329,23.44,74116.0,10.85,-5.61,-5.93,0,*43
1498579669.44,43330,23.44,74110.3,10.89,-5.55,-5.85,0,*47
1498579670.66,43331,23.44,74112.0,10.85,-5.47,-5.81,0,*4D
1498579671.88,43332,23.44,74112.5,10.85,-5.47,-5.85,0,*4A
1498579673.1,43333,23.44,74114.3,10.85,-5.55,-5.85,0,*48
1498579674.32,43334,23.44,74114.3,10.85,-5.55,-5.81,0,*4B
1498579675.53,43335,23.44,74112.3,10.85,-5.47,-5.73,0,*44
1498579676.74,43336,23.44,74110.8,10.85,-5.35,-5.69,0,*49
1498579677.95,43337,23.44,74112.3,10.89,-5.43,-5.69,0,*45
1498579679.15,43338,23.44,74114.3,10.85,-5.43,-5.73,0,*4D
1498579680.38,43339,23.44,74114.5,10.85,-5.73,-6.23,0,*49
1498579681.61,43340,23.44,74114.3,10.85,-5.55,-5.85,0,*4C
1498579682.82,43341,23.44,74112.5,10.85,-5.85,-6.13,0,*4C
1498579684.03,43342,23.44,74110.8,10.85,-5.61,-5.97,0,*4A
1498579685.24,43343,23.44,74116.0,10.85,-5.85,-6.13,0,*4E
1498579686.45,43344,23.44,74112.5,10.85,-5.81,-6.09,0,*46
1498579687.71,43345,23.44,74114.0,10.83,-5.85,-6.23,0,*4D
1498579688.93,43346,23.44,74114.0,10.81,-5.97,-6.27,0,*4B
1498579690.14,43347,23.44,74110.0,10.81,-5.65,-6.01,0,*43
1498579691.37,43348,23.44,74110.5,10.83,-5.61,-5.97,0,*46
1498579692.57,43349,23.44,74110.5,10.81,-5.61,-5.97,0,*45
1498579693.81,43350,23.44,74112.8,10.81,-5.27,-5.61,0,*46
1498579695.03,43351,23.44,74116.5,10.81,-5.39,-5.85,0,*42
1498579696.23,43352,23.44,74112.5,10.81,-5.73,-6.01,0,*40
1498579697.47,43353,23.44,74112.8,10.83,-5.65,-5.97,0,*48
1498579698.68,43354,23.44,74116.0,10.81,-5.39,-5.85,0,*47
1498579699.89,43355,23.44,74114.3,10.81,-5.73,-6.13,0,*44
1498579701.12,43356,23.44,74114.3,10.81,-5.89,-6.27,0,*45
1498579702.36,43357,23.44,74110.8,10.79,-5.77,-6.05,0,*42
1498579703.63,43358,23.44,74110.3,10.79,-5.85,-6.27,0,*40
1498579704.89,43359,23.44,74108.8,10.79,-5.89,-6.23,0,*49
1498579706.15,43360,23.44,74110.8,10.79,-5.89,-6.27,0,*47
1498579707.42,43361,23.44,74108.5,10.79,-5.89,-6.19,0,*4B
1498579708.63,43362,23.44,74108.3,10.77,-5.65,-6.13,0,*4E
1498579709.89,43363,23.44,74110.5,10.79,-5.89,-6.27,0,*44